Time,TemperatureF,DewpointF,PressureIn,WindDirection,WindDirectionDegrees,WindSpeedMPH,WindSpeedGustMPH,Humidity,HourlyPrecipIn,Conditions,Clouds,dailyrainin,SoftwareType,DateUTC
2014-07-31 00:01:00,63.8,58.5,30.02,WSW,258,0.0,18.0,83,0.00,,,0.00,Wunderground v.1.15,2014-07-31 05:01:00,
2014-07-31 00:07:00,63.5,58.2,30.01,WSW,258,0.0,18.0,83,0.00,,,0.00,Wunderground v.1.15,2014-07-31 05:07:00,
2014-07-31 00:13:00,63.1,58.2,30.02,WSW,257,0.0,18.0,84,0.00,,,0.00,Wunderground v.1.15,2014-07-31 05:13:00,
2014-07-31 00:18:00,63.0,58.4,30.02,WSW,258,0.0,18.0,85,0.00,,,0.00,Wunderground v.1.15,2014-07-31 05:18:00,
2014-07-31 00:23:00,62.8,58.5,30.02,WSW,258,0.0,18.0,86,0.00,,,0.00,Wunderground v.1.15,2014-07-31 05:23:00,
2014-07-31 00:29:00,62.6,58.4,30.02,WSW,247,0.0,18.0,86,0.00,,,0.00,Wunderground v.1.15,2014-07-31 05:29:00,
2014-07-31 00:35:00,62.7,58.5,30.02,WSW,247,0.0,18.0,86,0.00,,,0.00,Wunderground v.1.15,2014-07-31 05:35:00,
2014-07-31 00:40:00,62.8,58.2,30.02,WSW,247,0.0,18.0,85,0.00,,,0.00,Wunderground v.1.15,2014-07-31 05:40:00,
2014-07-31 00:46:00,62.6,58.0,30.02,WSW,247,0.0,18.0,85,0.00,,,0.00,Wunderground v.1.15,2014-07-31 05:46:00,
2014-07-31 00:52:00,62.6,58.0,30.02,WSW,247,0.0,18.0,85,0.00,,,0.00,Wunderground v.1.15,2014-07-31 05:52:00,
2014-07-31 00:57:00,62.5,57.9,30.02,WSW,247,0.0,18.0,85,0.00,,,0.00,Wunderground v.1.15,2014-07-31 05:57:00,
2014-07-31 01:03:00,62.4,57.8,30.02,WSW,247,0.0,18.0,85,0.00,,,0.00,Wunderground v.1.15,2014-07-31 06:03:00,
2014-07-31 01:09:00,62.4,57.8,30.02,WSW,247,0.0,18.0,85,0.00,,,0.00,Wunderground v.1.15,2014-07-31 06:09:00,
2014-07-31 01:15:00,62.5,57.6,30.02,WSW,257,0.0,18.0,84,0.00,,,0.00,Wunderground v.1.15,2014-07-31 06:15:00,
2014-07-31 01:20:00,62.7,57.8,30.02,WSW,254,0.0,18.0,84,0.00,,,0.00,Wunderground v.1.15,2014-07-31 06:20:00,
2014-07-31 01:26:00,62.7,57.8,30.02,WSW,254,0.0,18.0,84,0.00,,,0.00,Wunderground v.1.15,2014-07-31 06:26:00,
2014-07-31 01:32:00,62.6,57.4,30.02,WSW,254,0.0,18.0,83,0.00,,,0.00,Wunderground v.1.15,2014-07-31 06:32:00,
2014-07-31 01:37:00,62.5,57.3,30.02,WSW,244,0.0,18.0,83,0.00,,,0.00,Wunderground v.1.15,2014-07-31 06:37:00,
2014-07-31 01:43:00,62.2,57.3,30.02,WSW,244,0.0,18.0,84,0.00,,,0.00,Wunderground v.1.15,2014-07-31 06:43:00,
2014-07-31 01:49:00,62.0,57.1,30.01,WSW,244,0.0,18.0,84,0.00,,,0.00,Wunderground v.1.15,2014-07-31 06:49:00,
2014-07-31 01:55:00,61.7,57.1,30.02,WSW,244,0.0,18.0,85,0.00,,,0.00,Wunderground v.1.15,2014-07-31 06:55:00,
2014-07-31 02:00:00,61.5,56.9,30.02,WSW,244,0.0,18.0,85,0.00,,,0.00,Wunderground v.1.15,2014-07-31 07:00:00,
2014-07-31 02:05:00,61.4,56.8,30.02,WSW,244,0.0,18.0,85,0.00,,,0.00,Wunderground v.1.15,2014-07-31 07:05:00,
2014-07-31 02:10:00,61.4,57.2,30.01,WSW,244,0.0,18.0,86,0.00,,,0.00,Wunderground v.1.15,2014-07-31 07:10:00,
2014-07-31 02:16:00,61.5,56.9,30.01,WSW,244,0.0,18.0,85,0.00,,,0.00,Wunderground v.1.15,2014-07-31 07:16:00,
2014-07-31 02:22:00,61.2,57.0,30.01,WSW,244,0.0,18.0,86,0.00,,,0.00,Wunderground v.1.15,2014-07-31 07:22:00,
2014-07-31 02:28:00,61.0,56.8,30.02,WSW,244,0.0,18.0,86,0.00,,,0.00,Wunderground v.1.15,2014-07-31 07:28:00,
2014-07-31 02:34:00,61.1,56.9,30.01,WSW,244,0.0,18.0,86,0.00,,,0.00,Wunderground v.1.15,2014-07-31 07:34:00,
2014-07-31 02:40:00,61.2,57.0,30.01,WSW,244,0.0,18.0,86,0.00,,,0.00,Wunderground v.1.15,2014-07-31 07:40:00,
2014-07-31 02:46:00,61.3,57.1,30.01,WSW,248,0.0,18.0,86,0.00,,,0.00,Wunderground v.1.15,2014-07-31 07:46:00,
2014-07-31 02:52:00,61.6,57.4,30.01,WSW,249,0.0,18.0,86,0.00,,,0.00,Wunderground v.1.15,2014-07-31 07:52:00,
2014-07-31 02:57:00,61.6,57.0,30.01,WSW,248,0.0,18.0,85,0.00,,,0.00,Wunderground v.1.15,2014-07-31 07:57:00,
2014-07-31 03:03:00,61.7,57.1,30.01,WSW,256,0.0,18.0,85,0.00,,,0.00,Wunderground v.1.15,2014-07-31 08:03:00,
2014-07-31 03:09:00,62.0,57.4,30.01,WSW,257,0.0,18.0,85,0.00,,,0.00,Wunderground v.1.15,2014-07-31 08:09:00,
2014-07-31 03:15:00,62.1,57.2,30.01,WSW,257,0.0,18.0,84,0.00,,,0.00,Wunderground v.1.15,2014-07-31 08:15:00,
2014-07-31 03:21:00,62.0,57.1,30.01,WSW,257,0.0,18.0,84,0.00,,,0.00,Wunderground v.1.15,2014-07-31 08:21:00,
2014-07-31 03:26:00,61.8,57.2,30.01,WSW,257,0.0,18.0,85,0.00,,,0.00,Wunderground v.1.15,2014-07-31 08:26:00,
2014-07-31 03:32:00,61.7,57.1,30.01,WSW,257,0.0,18.0,85,0.00,,,0.00,Wunderground v.1.15,2014-07-31 08:32:00,
2014-07-31 03:38:00,61.4,56.8,30.01,WSW,257,0.0,18.0,85,0.00,,,0.00,Wunderground v.1.15,2014-07-31 08:38:00,
2014-07-31 03:44:00,61.2,57.0,30.01,WSW,257,0.0,18.0,86,0.00,,,0.00,Wunderground v.1.15,2014-07-31 08:44:00,
2014-07-31 03:49:00,61.1,56.9,30.01,WSW,257,0.0,18.0,86,0.00,,,0.00,Wunderground v.1.15,2014-07-31 08:49:00,
2014-07-31 03:55:00,61.1,56.9,30.01,WSW,257,0.0,18.0,86,0.00,,,0.00,Wunderground v.1.15,2014-07-31 08:55:00,
2014-07-31 04:01:00,61.1,56.9,30.01,WSW,255,0.0,18.0,86,0.00,,,0.00,Wunderground v.1.15,2014-07-31 09:01:00,
2014-07-31 04:07:00,61.0,56.8,30.01,WSW,256,0.0,18.0,86,0.00,,,0.00,Wunderground v.1.15,2014-07-31 09:07:00,
2014-07-31 04:13:00,60.8,56.6,30.01,WSW,256,0.0,18.0,86,0.00,,,0.00,Wunderground v.1.15,2014-07-31 09:13:00,
2014-07-31 04:19:00,60.7,56.8,30.01,WSW,255,0.0,18.0,87,0.00,,,0.00,Wunderground v.1.15,2014-07-31 09:19:00,
2014-07-31 04:25:00,60.3,56.7,30.01,WSW,255,0.0,18.0,88,0.00,,,0.00,Wunderground v.1.15,2014-07-31 09:25:00,
2014-07-31 04:31:00,59.8,56.2,30.01,WSW,255,0.0,18.0,88,0.00,,,0.00,Wunderground v.1.15,2014-07-31 09:31:00,
2014-07-31 04:37:00,59.4,56.2,30.01,WSW,255,0.0,18.0,89,0.00,,,0.00,Wunderground v.1.15,2014-07-31 09:37:00,
2014-07-31 04:43:00,59.3,56.4,30.01,WSW,255,0.0,18.0,90,0.00,,,0.00,Wunderground v.1.15,2014-07-31 09:43:00,
2014-07-31 04:48:00,59.2,56.3,30.01,WSW,255,0.0,18.0,90,0.00,,,0.00,Wunderground v.1.15,2014-07-31 09:48:00,
2014-07-31 04:54:00,59.3,56.4,30.01,WSW,255,0.0,18.0,90,0.00,,,0.00,Wunderground v.1.15,2014-07-31 09:54:00,
2014-07-31 05:00:00,59.5,56.6,30.01,WSW,255,0.0,18.0,90,0.00,,,0.00,Wunderground v.1.15,2014-07-31 10:00:00,
2014-07-31 05:06:00,59.5,56.3,30.02,WSW,255,0.0,18.0,89,0.00,,,0.00,Wunderground v.1.15,2014-07-31 10:06:00,
2014-07-31 05:12:00,59.3,56.1,30.02,WSW,255,0.0,18.0,89,0.00,,,0.00,Wunderground v.1.15,2014-07-31 10:12:00,
2014-07-31 05:18:00,59.1,56.2,30.02,WSW,255,0.0,18.0,90,0.00,,,0.00,Wunderground v.1.15,2014-07-31 10:18:00,
2014-07-31 05:24:00,59.0,56.1,30.02,WSW,256,0.0,18.0,90,0.00,,,0.00,Wunderground v.1.15,2014-07-31 10:24:00,
2014-07-31 05:30:00,59.1,56.5,30.02,WSW,255,0.0,18.0,91,0.00,,,0.00,Wunderground v.1.15,2014-07-31 10:30:00,
2014-07-31 05:35:00,59.1,56.2,30.02,WSW,255,0.0,18.0,90,0.00,,,0.00,Wunderground v.1.15,2014-07-31 10:35:00,
2014-07-31 05:41:00,59.0,56.4,30.01,WSW,255,0.0,18.0,91,0.00,,,0.00,Wunderground v.1.15,2014-07-31 10:41:00,
2014-07-31 05:47:00,59.3,56.4,30.02,WSW,257,0.0,18.0,90,0.00,,,0.00,Wunderground v.1.15,2014-07-31 10:47:00,
2014-07-31 05:52:00,59.5,56.6,30.02,WSW,257,0.0,18.0,90,0.00,,,0.00,Wunderground v.1.15,2014-07-31 10:52:00,